|   |  | Asteroid 2013 GW79
					
					
					
					
						
					
					
						
							(Preview) 
						
							
								Orbital elements:
2013 GW79                                                Earth MOID = 0.0562 AU
Epoch 2013 Apr. 18.0 TT = JDT 2456400.5                 MPC
M  52.85349              (2000.0)            P               Q
n   0.58102164     Peri.  351.47285     -0.61917392     -0.78506188
a   1.4223545      Node   136.78061     +0.72194365     -0.57781306
e   0.2677257      Incl.    1.45296     +0.30890295     -0.22318134
P   1.70           H   22.9           G...                    | Blobrana | 0 |  |  | 
		
			
			
				
				
					|   |  | Asteroid 2013 GV79
					
					
					
					
						
					
					
						
							(Preview) 
						
							
								Orbital elements:
2013 GV79                                                Earth MOID = 0.0150 AU
Epoch 2013 Apr. 18.0 TT = JDT 2456400.5                 MPC
M  38.38663              (2000.0)            P               Q
n   0.62447739     Peri.  289.83329     -0.54213938     -0.83706494
a   1.3555792      Node   193.74738     +0.83900121     -0.53438994
e   0.4193118      Incl.   18.02492     +0.04649585     -0.11725904
P   1.58           H   23.2...                               | Blobrana | 0 |  |  | 
		
			
			
				
				
					|   |  | Asteroid 2013 GZ73
					
					
					
					
						
					
					
						
							(Preview) 
						
							
								Orbital elements:
2013 GZ73                                           PHA, Earth MOID = 0.0287 AU
Epoch 2013 Apr. 18.0 TT = JDT 2456400.5                 MPC
M  40.15872              (2000.0)            P               Q
n   0.26781392     Peri.  340.43845     -0.14510700     -0.98308008
a   2.3836763      Node   117.76758     +0.92376792     -0.17508248
e   0.6150284      Incl.    7.25821     +0.35439638     +0.05384868
P   3.68           H   1...                               | Blobrana | 0 |  |  | 
		
			
			
				
				
					|   |  | Asteroid 2013 GH69
					
					
					
					
						
					
					
						
							(Preview) 
						
							
								Orbital elements:
2013 GH69                                                Earth MOID = 0.2227 AU
Epoch 2013 Apr. 18.0 TT = JDT 2456400.5                 MPC
M 355.06058              (2000.0)            P               Q
n   0.25703525     Peri.  194.95084     -0.74330516     +0.66456107
a   2.4498581      Node    27.17789     -0.59527600     -0.60490749
e   0.4996189      Incl.    9.64481     -0.30519490     -0.43868611
P   3.83           H   23.1           G...                    | Blobrana | 0 |  |  | 
		
			
			
				
				
					|   |  | Asteroid 2013 GG69
					
					
					
					
						
					
					
						
							(Preview) 
						
							
								Orbital elements:
2013 GG69                                           PHA, Earth MOID = 0.0389 AU
Epoch 2013 Apr. 18.0 TT = JDT 2456400.5                 MPC
M 322.26849              (2000.0)            P               Q
n   0.21073862     Peri.  142.90344     +0.84483599     +0.53485011
a   2.7966619      Node   184.82351     -0.52160413     +0.81767662
e   0.6999730      Incl.    9.37227     -0.11908518     +0.21293264
P   4.68           H...                                  | Blobrana | 0 |  |  | 
		
			
			
				
				
					|   |  | Asteroid 2013 GK69
					
					
					
					
						
					
					
						
							(Preview) 
						
							
								Orbital elements:
2013 GK69                                                Earth MOID = 0.0319 AU
Epoch 2013 Apr. 18.0 TT = JDT 2456400.5                 MPC
M 344.64275              (2000.0)            P               Q
n   0.43937990     Peri.   37.98335     -0.40082240     +0.90969438
a   1.7135992      Node   208.86264     -0.88598307     -0.41506368
e   0.4276442      Incl.   13.00366     -0.23318534     +0.01335206
P   2.24           H   23.6...                                  | Blobrana | 0 |  |  | 
		
			
			
				
				
					|   |  | Asteroid 2013 GJ69
					
					
					
					
						
					
					
						
							(Preview) 
						
							
								Orbital elements:
2013 GJ69                                                Earth MOID = 0.0199 AU
Epoch 2013 Apr. 18.0 TT = JDT 2456400.5                 MPC
M 358.91395              (2000.0)            P               Q
n   0.29693033     Peri.   11.02094     -0.84134929     +0.53879291
a   2.2251861      Node   201.74646     -0.50426552     -0.81100695
e   0.5420643      Incl.    6.63673     -0.19454473     -0.22796914
P   3.32           H   26.5           G...                       | Blobrana | 0 |  |  | 
		
			
			
				
				
					|   |  | Asteroid (12818) Tomhanks
					
					
					
					
						
					
					
						
							(Preview) 
						
							
								Asteroid 12818 Tomhanks (1996 GU8) is a main-belt asteroid discovered on April 13, 1996   Read more | Blobrana | 0 |  |  | 
		
			
			
				
				
					|   |  | Asteroid 2013 GY68
					
					
					
					
						
					
					
						
							(Preview) 
						
							
								Orbital elements:
2013 GY68                                                Earth MOID = 0.1783 AU
Epoch 2013 Apr. 18.0 TT = JDT 2456400.5                 MPC
M 351.11022              (2000.0)            P               Q
n   0.24978964     Peri.  110.36874     -0.37683810     +0.91981449
a   2.4970071      Node   136.98187     -0.89832254     -0.33415702
e   0.5544742      Incl.    9.21435     -0.22585317     -0.20562194
P   3.95           H   20.9...                               | Blobrana | 0 |  |  | 
		
			
			
				
				
					|   |  | Asteroid 2013 GX68
					
					
					
					
						
					
					
						
							(Preview) 
						
							
								Orbital elements:
2013 GX68                                                Earth MOID = 0.2243 AU
Epoch 2013 Apr. 18.0 TT = JDT 2456400.5                 MPC
M  64.86198              (2000.0)            P               Q
n   0.70819026     Peri.  111.86444     -0.72055401     -0.68747535
a   1.2465300      Node    24.99204     +0.53048503     -0.63054479
e   0.0355603      Incl.   12.36069     +0.44652833     -0.36026505
P   1.39           H   23.0           G...                    | Blobrana | 0 |  |  | 
		
			
			
				
				
					|   |  | Asteroid 2013 GV68
					
					
					
					
						
					
					
						
							(Preview) 
						
							
								Orbital elements:
2013 GV68                                                Earth MOID = 0.0511 AU
Epoch 2013 Apr. 18.0 TT = JDT 2456400.5                 MPC
M  28.22295              (2000.0)            P               Q
n   0.41866766     Peri.  256.23939     +0.40857699     -0.91251963
a   1.7696598      Node   169.58210     +0.87323712     +0.38465879
e   0.8769865      Incl.    6.12929     +0.26555938     +0.13908825
P   2.35           H   18.9           G...                    | Blobrana | 0 |  |  | 
		
			
			
				
				
					|   |  | Asteroid 2013 GU68
					
					
					
					
						
					
					
						
							(Preview) 
						
							
								Orbital elements:
2013 GU68                                                Earth MOID = 0.1788 AU
Epoch 2013 Apr. 18.0 TT = JDT 2456400.5                 MPC
M 127.14335              (2000.0)            P               Q
n   0.48584863     Peri.   25.78759     +0.58561744     -0.78641488
a   1.6025148      Node    29.60911     +0.65774949     +0.31936801
e   0.2811047      Incl.   23.43232     +0.47372758     +0.52873028
P   2.03           H   19.3           G...                    | Blobrana | 0 |  |  | 
		
			
			
				
				
					|   |  | Asteroid 2013 GR66
					
					
					
					
						
					
					
						
							(Preview) 
						
							
								Orbital elements:
2013 GR66                                                Earth MOID = 0.2239 AU
Epoch 2013 Apr. 18.0 TT = JDT 2456400.5                 MPC
M 353.91893              (2000.0)            P               Q
n   0.22846833     Peri.  205.45982     -0.56120507     +0.80405036
a   2.6500376      Node    31.53198     -0.68060263     -0.31331569
e   0.5457262      Incl.   22.05161     -0.47098719     -0.50530812
P   4.31           H   21.1...                               | Blobrana | 0 |  |  | 
		
			
			
				
				
					|   |  | Asteroid (204) Kallisto
					
					
					
					
						
					
					
						
							(Preview) 
						
							
								Asteroid (204) Kallisto is at Opposition in the constellation Virgo on the 13th April. Magnitude: 11.5  Distance to Earth: 1.364 au  Distance to Sun center: 2.367 au | Blobrana | 0 |  |  | 
		
			
			
				
				
					|   |  | Asteroid 2013 GU66
					
					
					
					
						
					
					
						
							(Preview) 
						
							
								Orbital elements:
2013 GU66                                                Earth MOID = 0.0561 AU
Epoch 2013 Apr. 18.0 TT = JDT 2456400.5                 MPC
M 293.22546              (2000.0)            P               Q
n   0.84489826     Peri.  269.54641     +0.38424267     +0.91731845
a   1.1081531      Node    23.90087     -0.71101157     +0.36610554
e   0.1742394      Incl.   14.92191     -0.58891435     +0.15650428
P   1.17           H   24.8...                               | Blobrana | 1 |  |  |